EHI
0 0 0 0 0 0 0 0 0 0 0 0 0 0 0 0 0 0 0 0 0 0 0 0 0 0 0 0 0 0 0 0 0 0 0 0 0 0 0 0 0 0 0
0 0 0 0 0 0 0 0 0 0 0 0 0 0 0 0 0 0 0 0 0 0 0 0 0 0 0 0 0 0 0 0 0 0 0 0 0 0 0 0 0 0 0
0 0 0 0 0 0 0 0 0 0 0 0 0 0 0 0 0 0 0 0 0 0 0 0 0 0 0 0 0 0 0 0 0 0 0 0 0 0 0 0 0 0 0
0 0 0 0 0 0 0 0 0 0 0 0 0 0 0 0 0 0 0 0 0 0 0 0 0 0 0 0 0 0 0 0 0 0 0 0 0 0 0 0 0 0 0
0 0 0 0 0 0 0 0 0 0 0 0 0 0 0 0 0 0 0 0 0 0 0 0 0 0 0 0 0 0 0 0 0 0 0 0 0 0 0 0 0 0 0
0 0 0 0 0 0 0 0 0 0 0 0 0 0 0 0 0 0 0 0 0 0 0 0 0 0 0 0 0 0 0 0 0 0 0 0 0 0 0 0 0 0 0
0 0 0 0 0 0 0 0 0 0 0 0 0 0 0 0 0 0 0 0 0 0 0 0 0 0 0 0 0 0 0 0 0 0 0 0 0 0 0 0 0 0 0
0 0 0 0 0 0 0 0 0 0 0 0 0 0 0 0 0 0 0 0 0 0 0 0 0 0 0 0 0 0 0 0 0 0 0 0 0 0 0 0 0 0 0
0 0 0 0 0 0 0 0 0 0 0 0 0 0 0 0 0 0 0 0 0 0 0 0 0 0 0 0 0 0 0 0 0 0 0 0 0 0 0 0 0 0 0
0 0 0 0 0 0 0 0 0 0 0 0 0 0 0 0 0 0 0 0 0 0 0 0 0 0 0 0 0 0 0 0 0 0 0 0 0 0 0 0 0 0 0
0 0 0 0 0 0 0 0 0 0 0 0 0 0 0 0 0 0 0 0 0 0 0 0 0 0 0 0 0 0 0 0 0 0 0 0 0 0 0 0 0 0 0
0 0 0 0 0 0 0 0 0 0 0 0 0 0 0 0 0 0 0 0 0 0 0 0 0 0 0 0 0 0 0 0 0 0 0 0 0 0 0 0 0 0 0
0 0 0 0 0 0 0 0 0 0 0 0 0 0 0 0 0 0 0 0 0 0 0 0 0 0 0 0 0 0 0 0 0 0 0 0 0 0 0 0 0 0 0
0 0 0 0 0 0 0 0 0 0 0 0 0 0 0 0 0 0 0 0 0 0 0 0 0 0 0 0 0 0 0 0 0 0 0 0 0 0 0 0 0 0 0
0 0 0 0 0 0 0 0 0 0 0 0 0 0 0 0 0 0 0 0 0 0 0 0 0 0 0 0 0 0 0 0 0 0 0 0 0 0 0 0 0 0 0
0 0 0 0 0 0 0 0 0 0 0 0 0 0 0 0 0 0 0 0 0 0 0 0 0 0 0 0 0 0 0 0 0 0 0 0 0 0 0 0 0 0 0
0 0 0 0 0 0 0 0 0 0 0 0 0 0 0 0 0 0 0 0 0 0 0 0 0 0 0 0 0 0 0 0 0 0 0 0 0 0 0 0 0 0 0
0 0 0 0 0 0 0 0 0 0 0 0 0 0 0 0 0 0 0 0 0 0 0 0 0 0 0 0 0 0 0 0 0 0 0 0 0 0 0 0 0 0 0
0 0 0 0 0 0 0 0 0 0 0 0 0 0 0 0 0 0 0 0 0 0 0 0 0 0 0 0 0 0 0 0 0 0 0 0 0 0 0 0 0 0 0
0 0 0 0 0 0 0 0 0 0 0 0 0 0 0 0 0 0 0 0 0 0 0 0 0 0 0 0 0 0 0 0 0 0 0 0 0 0 0 0 0 0 0
0 0 0 0 0 0 0 0 0 0 0 0 0 0 0 0 0 0 0 0 0 0 0 0 0 0 0 0 0 0 0 0 0 0 0 0 0 0 0 0 0 0 0
0 0 0 0 0 0 0 0 0 0 0 0 0 0 0 0 0 0 0 0 0 0 0 0 0 0 0 0 0 0 0 0 0 0 0 0 0 0 0 0 0 0 0
0 0 0 0 0 0 0 0 0 0 0 0 0 0 0 0 0 0 0 0 0 0 0 0 0 0 0 0 0 0 0 0 0 0 0 0 0 0 0 0 0 0 0
0 0 0 0 0 0 0 0 0 0 0 0 0 0 0 0 0 0 0 0 0 0 0 0 0 0 0 0 0 0 0 0 0 0 0 0 0 0 0 0 0 0 0
0 0 0 0 0 0 0 0 0 0 0 0 0 0 0 0 0 0 0 0 0 0 0 0 0 0 0 0 0 0 0 0 0 0 0 0 0 0 0 0 0 0 0
0 0 0 0 0 0 0 0 0 0 0 0 0 0 0 0 0 0 0 0 0 0 0 0 0 0 0 0 0 0 0 0 0 0 0 0 0 0 0 0 0 0 0
Wind_Speed
6 6 6 5 5 4 4 5 5 5 6 7 8 9 9 8 7 5 5 5 6 5 5 5 5 4 3 2 2 2 2 3 5 3 3 4 5 6 6 7 7 7 8
8 7 7 6 5 5 5 5 4 5 5 6 7 8 8 7 6 4 4 3 5 5 5 5 4 4 4 3 3 4 4 4 6 7 3 4 6 5 6 7 6 7 7
10 9 8 7 7 7 6 5 4 4 5 6 6 7 7 7 5 4 2 1 2 3 4 5 5 5 5 4 5 6 6 6 5 7 4 3 5 5 6 6 7 6 6
11 10 10 10 9 8 6 5 4 4 3 4 5 5 5 5 5 5 4 5 6 6 6 6 5 5 6 7 7 8 8 8 7 7 6 4 4 4 4 5 5 6 6
11 12 12 10 8 7 7 6 4 3 2 3 3 4 4 4 4 5 5 7 7 8 8 7 7 9 9 7 8 8 9 8 7 7 6 5 4 4 4 2 3 3 5
10 11 12 10 8 8 8 6 5 4 2 1 1 2 3 3 5 7 6 6 7 8 8 8 9 11 15 15 14 11 9 10 9 7 6 6 4 3 3 3 3 3 4
10 11 11 11 9 8 7 7 7 6 4 3 2 1 2 2 4 7 8 6 7 6 6 7 8 9 11 11 14 15 13 11 9 7 8 5 3 2 3 4 4 4 3
11 10 10 10 10 9 7 8 8 6 5 5 4 4 3 2 4 7 9 7 7 7 6 7 9 8 8 10 11 11 9 8 6 6 6 4 3 2 2 3 3 3 3
11 10 10 10 10 9 9 9 8 7 7 6 6 6 5 4 6 8 8 6 7 7 6 6 8 8 9 13 12 11 10 8 10 11 10 9 9 7 4 4 4 4 4
12 11 10 9 9 9 10 9 7 7 8 8 7 7 7 6 8 9 8 6 7 6 5 6 7 8 9 10 10 10 10 6 6 8 9 9 9 10 10 5 3 4 3
12 11 10 9 9 9 9 8 7 9 9 9 9 7 7 8 10 12 10 6 7 6 5 4 4 10 11 11 9 8 9 8 7 8 7 7 7 7 7 6 5 4 4
11 11 11 10 9 9 8 8 7 9 11 11 9 7 5 6 9 11 12 9 9 7 6 5 6 11 12 12 9 11 12 9 7 7 7 6 5 5 5 5 6 6 5
11 11 11 10 9 7 7 7 6 8 10 11 10 10 8 6 7 11 12 12 11 6 6 9 10 12 12 10 11 11 8 7 7 7 6 4 3 3 3 3 5 5 6
11 11 10 9 9 8 6 5 5 8 10 12 12 11 9 8 7 7 7 8 9 9 8 10 12 11 9 9 8 6 5 5 6 6 4 3 3 3 4 3 3 3 5
11 10 10 9 9 8 7 6 6 9 12 14 13 13 13 11 11 14 12 9 9 9 9 6 5 5 5 5 5 5 4 5 5 3 4 4 4 4 4 3 3 4 4
10 9 8 7 7 7 7 8 9 11 14 17 16 15 14 14 18 18 17 16 16 17 10 7 6 6 6 6 6 4 4 4 4 4 4 4 5 5 4 3 3 4 4
10 9 7 7 7 7 6 6 7 7 9 15 17 18 16 18 20 18 17 18 18 16 8 8 7 7 6 6 6 5 4 4 3 4 5 4 4 4 4 4 4 3 3
10 11 9 7 8 7 6 6 6 7 7 8 10 16 18 20 20 19 20 15 9 7 7 9 8 7 7 7 6 5 5 5 4 4 4 4 4 4 4 3 3 3 3
8 7 7 7 7 7 6 6 7 8 9 10 8 9 13 16 17 19 19 10 12 10 8 8 8 8 7 7 6 6 6 6 5 5 4 4 4 4 4 3 3 4 2
7 13 11 7 7 6 6 6 7 7 9 11 12 12 11 10 9 11 9 8 10 10 9 9 8 8 7 7 7 7 6 6 6 5 5 4 4 4 5 5 4 4 3
6 8 12 8 6 6 6 6 6 6 8 11 11 13 17 14 13 14 12 10 10 10 10 9 8 8 7 7 7 8 9 7 7 6 6 5 5 4 4 4 4 4 3
6 6 6 6 6 5 5 6 5 6 9 12 10 11 16 12 12 12 12 11 10 9 9 9 8 8 8 9 9 9 9 8 8 7 6 6 6 5 5 5 5 4 4
5 6 6 5 6 6 6 5 5 6 9 11 12 12 12 10 11 11 12 11 9 8 8 8 8 8 7 8 8 9 10 10 9 9 9 8 7 7 6 6 7 6 6
5 5 5 5 5 5 5 4 4 6 10 11 11 12 12 11 11 12 11 10 9 8 8 8 9 11 12 10 8 9 9 9 9 9 13 10 10 8 8 8 8 9 8
4 4 4 4 4 4 4 3 4 7 10 10 11 11 11 11 10 10 9 9 10 9 10 10 8 10 13 14 12 11 11 11 10 9 10 10 11 11 10 10 9 9 9
3 3 3 3 3 3 3 3 5 8 9 10 10 10 10 11 10 10 9 9 9 8 9 9 10 12 13 12 14 13 11 11 11 11 9 9 11 11 11 10 12 10 10
Wind_Direction
305 288 275 265 257 255 258 267 279 290 302 310 314 314 311 303 293 272 253 233 219 205 191 185 180 165 161 155 144 133 122 118 115 83 46 38 55 63 59 63 64 64 65
312 292 272 261 252 250 255 265 277 290 302 310 317 320 323 321 313 294 272 230 207 187 170 161 155 139 127 124 122 111 105 105 120 115 70 47 53 53 59 60 57 62 63
324 307 285 265 249 244 246 253 270 286 306 318 327 332 336 341 348 356 12 78 120 131 137 135 129 125 115 110 109 107 103 98 96 108 91 60 59 47 57 60 56 49 52
331 320 299 278 257 244 237 237 251 271 298 318 332 342 347 359 11 23 48 74 85 85 89 97 104 111 117 117 111 111 110 104 99 99 92 72 60 42 59 64 62 48 42
329 326 313 293 269 247 232 229 232 243 265 299 332 356 5 20 34 45 56 76 85 85 77 75 87 102 105 110 118 118 117 112 107 102 96 84 64 55 56 48 74 62 53
321 323 322 310 283 255 237 224 218 221 230 260 328 17 41 51 49 61 71 77 81 86 86 80 85 90 92 90 93 95 108 118 116 108 100 96 86 75 68 64 66 58 45
311 315 323 322 301 272 247 225 216 212 201 198 193 139 104 87 83 82 79 84 79 76 84 92 95 94 95 96 86 79 76 85 103 116 111 112 109 111 104 86 76 74 62
302 307 313 321 315 292 257 235 219 206 197 192 188 175 157 153 128 109 95 83 80 73 76 95 102 97 102 105 97 86 76 68 80 92 107 109 107 107 99 102 101 92 73
292 295 303 309 314 309 277 247 225 203 197 192 186 177 169 164 151 133 117 102 90 77 71 82 105 107 117 115 108 102 92 81 78 84 85 85 82 76 93 102 90 84 61
281 284 289 293 298 304 295 262 231 209 198 187 185 182 175 171 167 152 133 118 106 96 80 73 90 111 119 120 120 120 113 107 106 92 75 64 65 60 57 69 95 95 81
276 279 283 284 287 293 298 275 234 213 193 184 181 179 177 176 172 166 151 134 134 125 113 99 93 108 108 108 112 117 128 126 110 101 89 76 67 61 57 57 58 78 85
277 278 279 280 283 296 301 289 246 214 192 181 175 172 174 175 173 174 164 151 145 133 129 121 112 111 106 104 104 115 117 111 105 98 91 81 74 66 57 57 61 63 64
278 276 276 279 275 277 290 294 265 220 195 182 179 178 175 173 175 172 165 153 144 125 129 129 120 111 101 97 104 110 108 107 106 103 99 86 71 58 65 70 59 65 69
271 272 272 274 275 273 281 283 271 230 200 184 181 179 173 168 167 161 155 146 131 118 117 114 105 98 95 96 92 87 89 102 110 110 104 93 88 82 66 64 63 54 61
269 270 270 267 268 271 273 271 273 249 213 188 183 178 173 176 180 167 159 157 153 143 132 118 113 114 110 103 96 92 98 107 103 107 113 110 102 90 75 67 73 72 68
266 268 266 265 266 266 275 285 277 258 220 197 182 174 178 172 163 164 162 156 148 145 136 140 142 145 145 143 137 125 120 121 120 124 122 117 113 107 98 86 83 83 79
255 261 265 266 264 262 265 279 296 279 208 186 176 171 168 159 159 161 155 148 148 147 142 155 158 162 160 158 156 151 147 142 137 137 132 130 125 118 113 108 103 97 87
253 262 266 261 261 257 257 267 277 258 194 174 177 172 162 158 157 150 138 130 146 163 162 166 169 171 169 169 169 163 152 149 150 147 143 144 141 134 129 128 125 118 104
251 254 258 260 259 253 254 261 269 252 192 167 156 163 163 150 143 146 148 156 167 175 173 173 175 175 178 179 177 172 167 167 165 161 159 158 156 147 143 145 141 132 125
248 261 265 260 255 248 249 258 261 235 182 167 168 161 150 141 147 162 174 169 171 176 176 177 179 181 181 181 180 176 174 174 173 174 173 171 170 167 163 164 166 161 157
243 256 267 269 252 244 251 258 254 215 177 168 168 164 164 166 167 172 179 179 178 178 178 179 179 182 183 180 180 182 182 184 184 185 183 181 179 179 179 177 177 178 171
237 244 252 256 254 248 252 256 243 198 174 165 158 157 167 166 167 172 179 184 184 181 178 178 180 183 184 183 182 183 187 190 192 191 190 189 188 189 184 185 186 185 188
231 244 253 252 252 254 259 252 224 184 168 160 155 157 171 171 169 174 180 182 180 177 174 176 180 184 188 189 188 188 192 197 197 193 191 193 196 196 194 196 196 194 200
231 244 251 251 249 250 253 240 203 172 160 156 157 161 171 175 173 176 177 176 176 175 175 179 186 190 190 190 193 198 204 202 196 197 197 199 201 203 202 204 206 207 207
233 241 244 244 247 251 252 224 186 163 157 157 160 164 170 174 174 175 173 172 173 176 180 182 187 193 197 198 199 204 204 197 197 197 198 204 210 209 208 210 210 209 207
237 241 239 234 243 251 243 205 170 159 156 158 160 162 167 173 174 172 170 171 175 178 182 186 194 196 198 203 209 208 200 197 198 198 199 205 212 216 213 216 215 212 207